Location: SAPM � Hemmingford
(45.0500°N, 73.5833°W)
Time: 17:45:05
(UTC-04:00)

Daily predictions for brighter satellites

Satellite Brightness Start Highest point End
(mag) Time Altitude Azimuth Time Altitude Azimuth Time Altitude Azimuth
Cosmos 2297 Rocket 2.5 19:52:09 10° NNW 19:57:49 73° WSW 20:03:26 10° SSE
CZ-2D R/B 3.6 19:57:57 10° SE 20:01:41 47° ENE 20:05:27 10° N
Resurs 01 Rocket 2.2 20:00:01 10° S 20:04:24 64° WSW 20:08:51 10° NNW
Lacrosse 5 rocket 3.6 20:02:28 10° W 20:05:02 18° SW 20:07:33 10° SSW
Cosmos 1763 Rocket 4.5 20:01:42 10° SSE 20:05:39 23° E 20:09:36 10° NE
Cosmos 1975 2.9 20:02:20 10° S 20:06:22 58° E 20:10:25 10° NNE
FengYun 1-2 T 4.4 20:03:15 10° SSE 20:08:52 86° WSW 20:14:29 10° NNW
Cosmos 2150 Rocket 4.0 20:06:01 10° NNW 20:11:12 78° ENE 20:16:23 10° SSE
Cosmos 1515 3.7 20:10:27 10° N 20:14:17 65° E 20:18:05 10° SSE
Cosmos 1898 Rocket 3.6 20:13:17 10° NNW 20:18:38 87° WSW 20:23:52 10° SSE
Cosmos 1825 Rocket 4.3 20:16:07 10° N 20:20:10 34° ENE 20:24:09 10° SE
Cosmos 468 Rocket 3.9 20:22:55 10° SSW 20:28:01 75° ESE 20:33:09 10° NNE
Cosmos 841 Rocket 4.1 20:26:58 10° SSE 20:31:40 35° ESE 20:36:22 10° NE
Cosmos 1697 Rocket 2.7 20:26:23 10° SSW 20:32:02 82° ESE 20:37:43 10° NNE
Cosmos 1953 Rocket 4.3 20:29:00 10° N 20:33:07 35° ENE 20:36:27 14° SE
Cosmos 2173 Rocket 4.1 20:30:52 10° SSE 20:37:01 54° E 20:43:08 10° NNE
H-2A R/B 3.3 20:35:01 16° ESE 20:37:02 23° ENE 20:40:19 10° NNE
Cosmos 1626 Rocket 4.4 20:32:49 10° NNW 20:37:05 52° W 20:41:18 10° S
Cosmos 1743 3.0 20:34:10 10° SSE 20:37:54 46° E 20:41:41 10° NNE
Cosmos 1066 Rocket 4.3 20:34:26 10° N 20:40:11 89° W 20:46:01 10° S
Cosmos 967 Rocket 4.5 20:35:20 10° NNW 20:41:44 84° NE 20:47:19 14° SE
Cosmos 1814 Rocket 4.0 20:37:44 10° SSW 20:43:04 85° ESE 20:48:23 10° NNE
Lacrosse 5 3.0 20:41:31 10° WNW 20:46:13 39° SW 20:50:52 10° SSE
SL-16 R/B 3.1 20:43:32 10° SSE 20:48:07 26° ESE 20:52:44 10° NE
Cosmos 1939 Rocket 3.3 20:46:28 19° SE 20:49:11 46° ENE 20:53:12 10° N
SJ-11-01 4.3 20:45:47 12° SSE 20:50:00 65° ENE 20:54:39 10° N
Cosmos 1758 Rocket 3.9 20:47:05 10° N 20:51:16 45° ENE 20:53:45 22° SE
Iridium 4 Rocket 3.8 20:48:57 10° N 20:53:48 61° W 20:58:12 10° SSW
USA 186 3.0 20:53:34 10° SSW 20:56:16 35° W 20:58:49 10° NNW
Cosmos 1980 Rocket 2.1 20:51:17 10° SSW 20:56:57 80° ESE 21:02:41 10° NNE
Cosmos 2100 Rocket 3.9 20:50:54 10° S 20:57:09 83° E 21:03:23 10° N
SPOT 5 3.6 20:57:22 24° ESE 20:59:34 36° ENE 21:03:50 10° N
YAOGAN 11 4.1 20:58:11 15° SSE 21:01:57 86° ENE 21:06:24 10° NNW
ALOS 3.9 21:00:38 10° SSW 21:04:52 34° W 21:09:08 10° NNW
YAOGAN 6 3.7 21:08:21 28° E 21:08:40 28° ENE 21:11:55 10° N
Terra 4.0 21:08:11 11° ENE 21:08:51 11° ENE 21:10:11 10° NE
deb Chang Zheng 4 4.1 21:05:11 10° NNE 21:09:21 37° E 21:10:32 31° SE
Tsikada Rocket 4.3 21:03:36 10° N 21:09:53 52° ENE 21:13:33 25° SE
RESURS DK-1 4.3 21:10:04 10° NW 21:13:31 26° WSW 21:16:57 10° SSW
Cosmos 1666 2.6 21:14:00 36° SSE 21:15:17 58° E 21:19:03 10° NNE
Envisat 2.9 21:12:39 22° SSE 21:16:00 82° ENE 21:21:07 10° NNW
CZ-4 DEB 3.3 21:14:52 25° S 21:16:26 54° W 21:19:32 10° NNW
Cosmos 2061 Rocket 4.1 21:10:25 10° SSW 21:16:42 79° W 21:22:58 10° N
Cosmos 1842 3.1 21:13:37 10° N 21:17:32 70° E 21:18:45 41° SSE
Cosmos 1459 Rocket 4.1 21:11:41 10° SSW 21:17:43 75° W 21:23:53 10° N
Cosmos 2263 Rocket 2.8 21:13:05 10° NNW 21:18:20 41° ENE 21:20:21 30° E
Tiangong 1 3.5 21:19:30 10° WSW 21:21:00 13° SSW 21:21:05 13° SSW
Cosmos 1606 Rocket 3.7 21:18:15 10° SSW 21:22:39 77° W 21:27:08 10° N
Cosmos 2058 Rocket 3.0 21:22:10 23° S 21:24:53 72° E 21:29:24 10° NNE
Cosmos 1725 Rocket 3.9 21:23:02 16° S 21:27:58 66° E 21:34:11 10° NNE
Cosmos 1340 3.9 21:25:07 10° NNW 21:28:42 41° W 21:31:12 17° SSW
BREEZE-M DEB (TANK) 4.5 21:02:54 10° WNW 21:29:12 82° NNE 21:32:51 31° ESE
Cosmos 2322 Rocket 2.1 21:26:54 10° S 21:32:25 62° ESE 21:37:58 10° NNE
ERS-1 Rocket 3.5 21:29:00 16° S 21:32:51 56° W 21:37:48 10° NNW
MetOp-A 4.1 21:31:13 38° SE 21:33:17 69° ENE 21:38:38 10° N
Cosmos 1726 Rocket 4.3 21:40:15 10° SSW 21:44:32 53° WNW 21:48:54 10° N
Cosmos 1763 Rocket 4.5 21:42:16 10° SW 21:47:09 46° WNW 21:52:03 10° N
Meteor 2-9 Rocket 4.1 21:42:27 14° SSW 21:47:10 81° W 21:52:33 10° N
Cosmos 2233 Rocket 4.0 21:46:04 42° SSE 21:47:58 58° E 21:54:06 10° NNE
SL-19 R/B 4.3 21:42:59 10° NNE 21:48:14 49° E 21:48:20 49° ESE
Genesis I 3.7 21:48:52 10° NNW 21:52:24 52° NNE 21:52:24 52° NNE
H-2A R/B 2.8 21:54:29 33° ENE 21:54:29 33° ENE 21:58:43 10° N
Cosmos 783 Rocket 4.4 21:54:20 50° S 21:55:38 72° ESE 22:00:55 10° NNE
USA 215 4.0 21:52:31 25° ENE 21:55:58 45° NNE 22:02:05 10° NW
Meteor 2-5 Rocket 3.9 21:50:39 10° N 21:56:29 57° ENE 21:57:20 52° ESE
Meteor 1-24 Rocket 4.5 21:53:56 10° N 21:59:31 37° ENE 21:59:50 37° ENE
BREEZE-M DEB (TANK) 3.3 21:57:32 10° W 21:59:21 35° WSW 21:59:21 35° WSW
Meteor 1-15 Rocket 4.5 21:56:10 17° SSW 22:00:53 73° WNW 22:06:45 10° N
ASTEX 1 3.8 21:58:01 10° N 22:02:58 62° W 22:05:15 31° SSW
Cosmos 405 Rocket 3.3 22:01:31 10° NNW 22:04:30 54° NNW 22:04:30 54° NNW
Cosmos 1125 Rocket 4.3 22:01:53 10° NNW 22:06:51 45° WSW 22:08:30 34° SSW
Cosmos 2228 3.6 22:08:22 44° WSW 22:09:17 53° WNW 22:13:30 10° N
H-2A R/B 3.2 22:12:09 32° WSW 22:12:52 34° W 22:16:43 10° NNW
Cosmos 540 Rocket 3.5 22:12:07 42° SW 22:13:50 76° WNW 22:19:00 10° NNE
SPOT 1/Viking Rocket 3.5 22:13:18 70° S 22:13:53 82° WSW 22:19:07 10° NNW
Cosmos 2278 Rocket 4.1 22:10:34 10° N 22:14:09 17° NE 22:15:11 16° NE
Cosmos 332 Rocket 4.2 22:17:01 37° SW 22:18:47 62° WNW 22:23:41 10° NNE
Cosmos 371 Rocket 3.4 22:20:55 70° N 22:20:55 70° N 22:25:13 10° NNE
ARGOS 3.1 22:20:24 70° SSW 22:20:57 78° WSW 22:26:23 10° NNW
Cosmos 1844 Rocket 3.6 22:23:46 10° NNW 22:28:41 35° NE 22:28:41 35° NE
NOAA 11 4.3 22:29:45 60° SW 22:30:19 64° WSW 22:35:46 10° NNW
Landsat 7 4.2 22:31:21 61° N 22:31:21 61° N 22:35:20 10° NNW
SL-16 R/B 2.9 22:26:23 10° SW 22:31:53 51° WNW 22:37:27 10° NNE
SPOT 5 4.4 22:36:37 26° WSW 22:37:40 28° W 22:41:44 10° NW
Cosmos 1464 Rocket 4.0 22:39:00 65° ENE 22:39:00 65° ENE 22:44:55 10° NNE
Cosmos 2360 Rocket 2.5 22:42:34 55° NE 22:42:34 55° NE 22:46:59 10° NNE
Terra 2.6 22:47:05 49° N 22:47:05 49° N 22:50:34 10° N
GP-B 4.3 22:47:45 10° N 22:50:40 39° NNW 22:50:40 39° NNW
Lacrosse 4 Rocket 4.1 22:57:50 14° NNE 22:57:50 14° NNE 22:58:26 10° NNE
CZ-4B R/B 4.2 22:53:01 10° N 22:57:06 48° NW 22:57:06 48° NW
Cosmos 2219 Rocket 4.4 23:03:14 13° NE 23:03:14 13° NE 23:04:00 10° NE
Cosmos 2263 Rocket 3.4 22:57:14 10° NW 23:02:03 32° WSW 23:02:03 32° WSW
Cosmos 2322 Rocket 4.2 23:12:23 10° WSW 23:16:55 24° NW 23:21:29 10° N
BREEZE-M DEB (TANK) 4.5 23:13:12 10° W 23:17:26 31° W 23:17:26 31° W
Cosmos 2237 Rocket 4.4 23:28:38 14° NE 23:28:38 14° NE 23:29:36 10° NE
Cosmos 2322 4.5 23:27:10 49° NW 23:27:10 49° NW 23:32:21 10° NNE
H-2A R/B 3.7 23:35:07 27° WNW 23:35:07 27° WNW 23:38:06 10° NNW
Cosmos 2333 Rocket 4.2 23:39:21 20° NE 23:39:21 20° NE 23:41:10 10° NE
USA 215 3.5 23:39:52 62° WNW 23:39:52 62° WNW 23:45:17 10° NW
COSMOS 2428 3.9 23:54:28 40° N 23:54:28 40° N 23:58:13 10° NNE
